Temperature
18 18 18 18 18 18 18 18 18 18 18 18 18 18 18 18 18 18 18 18 18 18 18 18 18 18 19 18 19 19 18 18 18 18 18 18 18 18 18 18 18 18 18
18 18 18 18 18 18 18 18 18 18 18 18 18 18 18 18 18 18 18 18 18 18 18 18 18 18 18 18 18 18 18 18 18 18 18 18 18 18 18 18 18 18 18
19 18 18 18 18 18 18 18 18 18 18 18 18 18 18 18 18 18 18 18 18 18 18 18 18 18 18 18 18 18 18 18 18 18 18 18 18 18 18 18 18 18 18
18 18 18 18 18 18 18 18 18 18 18 18 18 18 18 17 17 17 17 17 17 17 17 17 17 18 18 18 18 18 18 18 18 18 18 18 18 18 18 18 18 18 18
18 18 18 18 18 18 18 18 18 18 17 17 17 17 17 17 17 17 17 17 17 17 17 17 17 17 17 18 18 18 18 18 18 17 18 18 18 18 18 18 18 18 18
18 18 18 18 18 18 18 17 17 17 17 17 17 17 17 17 17 16 16 16 16 17 17 17 17 17 17 17 17 17 17 17 17 17 17 17 17 18 18 18 18 18 18
19 18 18 18 18 18 18 17 17 17 17 17 17 16 16 16 16 16 16 16 16 16 16 17 17 17 17 17 17 17 17 17 17 17 17 17 17 18 18 18 18 18 18
19 18 18 18 18 18 17 17 17 17 17 17 16 16 16 16 16 16 16 16 16 16 16 16 16 16 16 16 17 17 17 17 17 17 17 17 17 17 18 18 18 18 18
19 18 18 18 18 18 17 17 17 17 17 16 16 16 16 16 16 16 15 15 15 15 15 16 16 16 16 16 16 17 17 17 17 17 17 17 17 17 17 18 18 18 18
19 18 18 18 18 18 17 17 17 17 16 16 16 16 16 16 16 15 15 15 15 15 15 15 15 16 16 16 16 16 16 17 17 17 17 17 17 17 17 18 18 18 18
19 19 18 18 18 18 17 17 17 17 16 16 16 16 16 16 16 15 15 15 15 15 15 15 15 15 16 16 16 16 16 16 17 17 17 17 17 17 17 17 18 18 18
19 19 18 18 18 18 18 17 17 17 16 16 16 16 16 16 15 15 15 15 15 15 15 15 15 15 15 16 16 16 16 16 16 16 17 17 17 17 17 17 17 17 18
19 19 19 18 18 18 18 17 17 17 17 16 16 16 16 16 15 15 15 15 15 15 15 15 15 15 15 15 16 16 16 16 16 16 16 16 17 17 17 17 17 17 17
19 19 19 19 18 18 18 18 17 17 17 16 16 16 16 15 15 15 15 15 15 15 15 15 15 15 15 15 15 15 16 16 16 16 16 16 16 16 17 17 17 17 17
20 19 19 19 19 18 18 18 17 17 17 17 16 16 16 15 15 15 15 15 14 14 14 14 15 15 15 15 15 15 15 16 16 16 16 16 16 16 17 17 17 17 17
20 20 20 19 19 18 18 18 17 17 17 17 16 16 16 15 15 15 15 14 14 14 14 14 14 15 15 15 15 15 15 16 16 16 16 16 16 16 16 17 17 17 17
20 20 20 19 19 19 18 18 17 17 17 16 16 16 15 15 15 15 15 14 14 14 14 14 14 15 15 15 15 15 15 15 16 16 16 16 16 16 16 17 17 17 17
21 20 20 19 19 19 18 18 17 17 17 16 16 16 15 15 15 15 14 14 14 14 14 14 14 15 15 15 15 15 15 15 16 16 16 16 16 16 16 16 17 17 17
21 21 20 20 19 19 18 18 17 17 17 16 16 16 15 15 15 14 14 14 14 14 14 14 14 14 15 15 15 15 15 15 16 16 16 16 16 16 16 16 16 17 17
21 21 20 20 19 19 18 18 17 17 17 16 16 16 15 15 15 14 14 14 14 14 14 14 14 14 14 15 15 15 15 15 15 15 16 16 16 16 16 16 16 16 16
21 21 20 20 19 19 18 18 17 17 16 16 16 16 15 15 15 15 14 14 14 14 14 14 14 14 14 15 15 15 15 15 15 15 15 15 16 16 16 16 16 16 16
21 21 20 20 19 19 18 18 17 17 16 16 16 16 15 15 15 15 14 14 14 14 14 14 14 14 14 14 15 15 15 15 15 15 15 15 15 15 16 16 16 16 16
21 21 20 20 19 19 18 18 17 17 16 16 16 16 15 15 15 15 15 14 14 14 14 14 14 14 14 14 14 14 14 14 15 15 15 15 15 15 16 16 16 16 16
21 20 20 20 19 19 18 18 17 17 16 16 16 16 15 15 15 15 15 14 14 14 14 14 14 14 14 14 14 14 14 14 14 14 15 15 15 15 15 15 15 16 16
20 20 20 19 19 19 18 18 17 17 16 16 16 16 16 15 15 15 15 15 14 14 14 14 14 14 14 14 14 14 14 14 14 14 14 15 15 15 15 15 15 15 15
20 20 20 19 19 18 18 18 17 17 16 16 16 16 16 15 15 15 15 15 15 14 14 14 14 14 14 14 14 14 14 14 14 14 14 14 14 15 15 15 15 15 15
Wind_Speed
3 6 10 11 11 11 11 11 11 11 11 11 11 11 10 10 10 9 9 9 9 9 8 8 8 8 8 8 8 8 8 8 8 7 7 6 6 7 7 7 7 6 7
7 9 11 11 11 11 11 11 11 11 11 10 10 10 9 9 9 8 8 8 8 7 7 7 7 7 7 7 7 7 7 8 8 8 7 6 6 6 6 7 7 6 8
9 10 11 12 11 11 11 11 11 10 10 10 9 9 9 9 8 8 8 8 7 7 7 7 6 6 6 6 6 7 7 8 7 7 6 3 4 6 6 7 7 8 8
10 11 11 12 12 12 11 11 11 10 10 9 9 8 8 8 8 7 7 7 7 7 7 6 6 6 5 5 6 6 7 7 7 7 5 2 2 5 6 6 7 8 8
10 11 12 13 12 12 12 11 10 10 9 9 8 8 7 7 7 7 7 6 6 6 6 6 6 6 6 6 6 6 6 7 7 6 4 2 2 4 5 6 7 7 7
9 11 13 13 12 12 11 11 10 9 8 8 7 7 6 6 6 6 6 6 6 5 5 5 6 5 5 5 6 6 6 6 6 5 3 1 1 4 5 5 6 6 6
9 10 12 13 12 12 11 10 9 8 7 6 6 5 5 5 5 5 5 5 5 5 5 5 5 6 6 6 6 7 7 7 5 3 3 1 2 3 4 4 5 5 6
10 10 11 13 12 11 11 10 8 7 6 5 3 3 3 3 3 3 3 4 4 5 5 5 6 6 7 7 7 8 8 7 5 4 3 2 3 4 4 4 4 5 5
9 9 8 10 11 11 10 9 7 6 4 2 1 1 2 2 2 2 3 3 4 4 5 6 6 7 8 8 8 9 9 8 5 3 3 2 3 4 4 4 4 4 5
8 7 7 8 8 8 8 8 7 5 3 2 2 3 3 4 4 4 3 4 4 5 6 7 8 9 9 9 9 9 9 7 4 3 3 3 4 4 4 4 4 3 4
8 6 6 6 7 8 7 7 6 5 3 2 3 4 4 4 4 4 4 5 5 6 7 9 10 10 10 8 9 9 8 4 3 2 3 4 4 4 4 4 4 4 4
8 7 6 6 6 7 7 6 5 3 2 2 2 3 4 4 3 2 4 5 6 7 8 10 11 10 8 7 8 7 4 3 2 2 3 5 4 4 4 4 4 4 4
7 7 7 7 7 6 4 4 3 2 1 1 1 3 5 6 5 5 4 6 7 7 7 9 9 8 7 5 4 3 2 1 1 2 3 4 4 4 4 5 5 5 5
7 7 7 7 5 4 4 3 3 2 2 2 3 5 5 4 4 4 3 4 5 5 4 5 5 7 6 6 4 2 2 1 1 2 2 3 4 4 4 5 5 5 5
7 7 7 7 6 4 3 3 4 3 3 3 5 6 6 4 3 3 3 4 5 5 4 4 4 5 5 5 5 3 2 1 1 1 2 2 3 3 3 4 5 6 6
8 7 7 7 6 5 4 3 3 4 4 5 6 6 7 6 4 3 3 3 4 5 5 4 4 4 4 4 5 4 2 1 0 0 1 2 2 3 3 4 5 5 6
9 8 8 7 6 6 5 4 4 5 6 5 5 7 7 7 5 4 3 3 4 6 6 5 5 4 5 5 5 5 3 2 1 1 1 2 2 2 3 4 5 5 6
9 8 8 8 7 7 6 4 4 5 5 5 6 7 7 7 7 5 3 3 4 5 4 4 4 4 4 4 4 4 3 2 2 1 0 1 1 1 2 3 5 5 6
9 9 7 8 7 7 6 5 5 5 5 5 6 6 6 7 7 5 3 3 5 4 4 4 4 3 3 5 4 3 4 3 2 2 2 1 0 1 0 1 4 5 6
8 8 8 7 7 7 5 4 4 4 3 3 4 4 5 6 6 5 3 4 5 4 4 4 4 4 3 3 3 4 4 4 3 3 2 1 1 1 0 0 1 3 5
7 7 7 7 6 5 4 3 3 2 1 1 1 2 4 4 5 5 3 4 4 3 3 4 3 4 4 4 3 4 4 4 5 4 3 2 2 2 1 1 1 1 2
7 6 7 7 6 5 3 3 2 2 1 0 1 1 2 2 3 3 3 3 3 3 5 5 4 3 3 4 3 3 4 5 4 5 4 3 3 2 2 1 1 1 2
6 7 7 7 6 5 5 4 4 4 3 3 2 2 2 0 0 2 2 2 2 2 2 3 3 3 3 4 3 3 2 2 3 4 4 4 4 3 2 2 1 0 2
5 5 7 6 6 5 5 5 4 2 1 2 2 2 2 1 1 1 1 2 1 1 2 3 3 2 2 3 3 2 1 2 0 3 4 4 5 4 3 2 2 1 1
5 6 6 7 6 5 5 5 4 2 1 1 1 1 2 2 2 2 1 1 1 1 2 3 3 2 2 1 2 2 2 2 2 1 2 4 4 3 3 2 1 1 0
6 6 6 7 5 4 5 4 4 2 1 1 2 1 2 2 3 3 2 0 1 1 1 1 2 2 1 1 1 1 1 1 1 1 1 2 3 3 3 2 2 1 0
Wind_Direction
126 129 120 112 108 105 104 101 97 93 90 87 85 82 78 76 73 71 69 66 66 65 61 57 55 53 50 45 39 36 32 27 22 20 21 29 35 39 41 45 47 49 52
137 125 118 113 109 105 102 99 96 93 88 86 84 81 77 75 71 68 65 62 59 57 53 49 47 43 40 37 30 24 20 16 11 10 15 30 37 44 51 55 53 58 55
124 120 117 115 112 108 104 100 96 93 89 86 83 79 75 71 67 62 60 57 53 49 44 39 35 32 29 25 20 14 12 8 3 9 16 33 47 66 68 63 58 57 57
127 123 120 117 112 108 105 101 98 94 91 87 82 78 74 70 65 59 52 48 44 39 34 31 26 23 16 13 10 5 4 359 359 5 8 23 58 82 75 68 63 59 57
124 122 124 120 117 112 108 103 100 97 92 87 81 76 70 66 61 55 48 41 37 32 28 25 19 13 8 5 2 357 354 352 354 0 5 47 82 98 87 76 70 64 62
125 128 130 127 124 120 115 110 105 99 92 85 81 75 69 62 57 52 46 39 34 28 23 17 11 6 359 354 349 347 345 345 350 350 353 42 142 116 98 85 79 73 67
131 134 137 135 131 127 122 118 111 105 98 90 80 73 65 55 47 44 37 30 26 20 14 5 356 350 344 340 337 335 334 334 344 342 340 297 183 135 110 92 84 84 78
141 143 145 144 140 135 131 127 123 117 109 99 86 66 51 38 24 17 8 9 12 7 0 350 340 336 333 328 325 324 324 327 330 333 319 272 198 153 126 102 91 90 85
144 146 151 152 150 148 145 143 142 139 132 126 107 11 6 353 340 335 332 345 356 356 350 340 331 324 319 316 313 311 312 316 321 306 296 261 197 155 140 119 100 97 90
149 154 161 165 164 162 163 162 163 166 167 201 287 318 335 330 308 290 299 310 334 346 346 338 331 325 318 312 309 306 306 312 314 299 275 249 208 163 149 137 122 115 106
161 170 170 172 177 179 182 188 185 192 209 255 303 319 342 350 334 296 282 298 325 341 343 339 339 338 331 322 318 312 313 310 295 284 249 236 204 172 158 153 141 130 121
172 181 181 180 188 193 199 195 201 221 244 271 298 335 10 19 10 349 308 324 340 349 350 348 346 347 343 330 324 324 321 308 279 257 238 226 204 178 165 162 149 139 130
173 174 178 180 185 187 193 182 194 212 216 316 5 33 49 50 44 33 22 13 11 9 360 353 360 353 346 338 327 331 332 317 272 256 240 213 201 184 169 168 156 146 137
157 163 167 167 166 173 167 161 159 155 136 80 61 62 61 52 43 35 33 19 14 9 360 355 352 349 346 344 345 347 348 342 260 254 238 208 208 196 181 174 164 155 147
155 160 160 152 150 149 133 131 127 132 122 101 76 69 74 68 45 35 26 20 12 9 6 356 353 353 350 347 353 1 353 329 279 256 239 217 208 206 194 185 173 165 158
161 157 147 141 144 129 119 118 116 119 111 91 73 73 73 74 66 46 28 17 8 2 5 7 1 357 347 348 354 354 347 344 308 293 235 225 221 223 212 193 184 174 165
163 152 146 143 134 123 120 116 111 113 108 89 79 77 72 71 67 58 35 17 1 5 12 14 6 5 4 2 356 347 348 352 337 287 238 223 247 253 225 200 192 181 170
159 153 153 141 131 124 116 107 103 106 103 93 84 74 67 66 64 57 35 11 5 14 14 7 8 2 0 358 349 342 354 359 346 331 351 211 224 262 248 210 193 189 183
160 153 145 134 130 122 112 101 96 96 94 96 88 76 67 62 60 57 37 7 14 16 8 3 12 6 356 350 342 351 2 7 355 4 5 357 270 235 254 227 202 197 189
151 145 140 131 130 120 103 87 71 66 65 80 86 82 75 62 55 52 40 16 23 21 9 3 359 2 355 341 353 3 358 357 10 17 1 3 1 6 192 160 191 208 196
141 140 139 134 134 123 107 102 96 86 71 58 56 89 79 66 57 56 35 18 21 25 11 4 3 3 358 356 18 1 356 9 22 20 12 15 5 7 80 149 160 184 200
148 142 138 139 138 135 129 129 129 123 116 136 347 34 63 76 50 55 47 29 22 23 16 14 21 12 357 14 41 37 6 356 358 7 7 19 10 14 31 42 145 175 182
144 153 151 147 138 129 115 94 70 52 36 22 3 330 308 246 24 38 42 46 33 38 16 8 22 33 7 357 39 84 75 337 325 341 358 8 5 13 7 11 42 219 181
153 146 140 137 129 121 113 108 111 110 114 253 257 271 293 287 279 329 24 46 37 29 9 358 36 36 42 8 357 26 124 175 70 339 337 350 356 2 3 7 13 12 130
121 126 129 127 123 122 117 120 116 113 196 282 305 316 313 314 300 287 313 29 18 8 355 2 14 31 46 43 10 357 17 34 66 110 325 331 344 342 342 338 350 12 84
98 110 116 119 116 119 118 120 125 127 122 25 360 344 319 315 313 295 273 289 303 299 326 339 360 20 20 34 35 41 59 41 340 106 269 309 321 319 328 332 334 338 39
Height
1529 1529 1529 1529 1529 1529 1529 1529 1529 1529 1529 1529 1528 1528 1528 1528 1528 1527 1527 1527 1527 1526 1526 1526 1525 1525 1524 1524 1523 1523 1522 1522 1521 1520 1520 1518 1517 1516 1515 1513 1512 1511 1509
1529 1529 1530 1529 1530 1530 1530 1529 1529 1529 1529 1529 1529 1528 1528 1528 1528 1527 1527 1527 1526 1526 1526 1526 1525 1525 1524 1524 1523 1523 1522 1522 1522 1521 1520 1519 1518 1517 1515 1514 1512 1511 1509
1530 1530 1530 1530 1530 1530 1530 1530 1529 1529 1529 1529 1529 1528 1528 1528 1528 1527 1527 1526 1526 1526 1525 1525 1525 1524 1524 1523 1523 1523 1522 1522 1521 1521 1520 1519 1518 1517 1516 1515 1513 1512 1510
1530 1531 1531 1531 1531 1530 1530 1530 1530 1529 1529 1529 1529 1528 1528 1528 1528 1527 1527 1526 1525 1525 1525 1524 1524 1523 1523 1523 1522 1522 1522 1522 1521 1521 1520 1519 1518 1518 1517 1515 1514 1512 1511
1531 1532 1531 1531 1531 1531 1531 1531 1530 1530 1529 1529 1529 1529 1528 1528 1527 1527 1526 1526 1525 1524 1524 1523 1523 1522 1522 1522 1522 1521 1521 1521 1521 1520 1520 1519 1519 1518 1517 1516 1515 1513 1512
1532 1532 1533 1532 1532 1532 1532 1531 1531 1530 1530 1530 1529 1529 1529 1528 1527 1527 1526 1525 1524 1523 1523 1522 1522 1521 1521 1521 1521 1520 1520 1520 1520 1520 1520 1519 1519 1518 1518 1516 1515 1514 1513
1533 1533 1534 1533 1533 1533 1532 1532 1532 1531 1531 1530 1530 1529 1529 1528 1528 1527 1526 1525 1524 1523 1522 1521 1521 1520 1520 1520 1520 1520 1520 1520 1519 1519 1519 1519 1519 1518 1518 1517 1516 1515 1513
1534 1534 1535 1535 1534 1534 1534 1533 1533 1532 1532 1531 1531 1530 1530 1529 1528 1527 1526 1525 1524 1523 1522 1521 1520 1520 1519 1519 1519 1519 1519 1519 1519 1519 1519 1519 1519 1518 1518 1517 1516 1516 1514
1535 1536 1536 1536 1536 1535 1535 1535 1534 1534 1533 1532 1532 1531 1530 1529 1528 1527 1526 1525 1524 1523 1522 1521 1520 1520 1519 1518 1518 1518 1518 1518 1518 1518 1518 1518 1518 1518 1518 1517 1517 1516 1515
1536 1537 1537 1537 1537 1536 1536 1536 1535 1535 1534 1534 1533 1532 1531 1530 1529 1528 1526 1525 1524 1523 1522 1521 1520 1519 1519 1518 1517 1517 1517 1517 1517 1517 1517 1518 1518 1518 1518 1518 1517 1516 1515
1537 1537 1538 1538 1538 1537 1537 1537 1537 1536 1535 1534 1533 1532 1531 1530 1529 1528 1527 1525 1524 1523 1522 1521 1520 1519 1518 1517 1517 1516 1516 1516 1516 1516 1517 1517 1518 1518 1518 1518 1517 1516 1515
1537 1538 1538 1538 1538 1538 1538 1538 1537 1537 1536 1535 1534 1533 1532 1530 1529 1528 1527 1526 1524 1523 1522 1521 1519 1518 1518 1517 1516 1516 1515 1515 1515 1516 1516 1516 1517 1517 1517 1517 1517 1517 1515
1538 1538 1538 1539 1539 1539 1539 1539 1538 1537 1536 1536 1535 1533 1532 1531 1529 1528 1527 1526 1524 1523 1522 1520 1519 1518 1517 1516 1516 1515 1515 1515 1515 1515 1515 1516 1516 1517 1517 1517 1517 1517 1516
1538 1538 1539 1539 1540 1540 1540 1539 1539 1538 1537 1536 1535 1534 1533 1531 1530 1528 1527 1526 1524 1523 1521 1520 1518 1518 1517 1516 1515 1515 1514 1514 1514 1514 1515 1515 1515 1516 1516 1517 1517 1517 1517
1538 1539 1540 1540 1540 1540 1540 1540 1539 1539 1538 1537 1536 1534 1533 1532 1530 1529 1527 1526 1524 1522 1521 1519 1518 1517 1516 1515 1514 1514 1514 1513 1514 1514 1514 1514 1515 1515 1516 1517 1517 1518 1518
1538 1539 1540 1541 1541 1541 1541 1541 1540 1539 1539 1538 1536 1535 1533 1532 1531 1529 1528 1526 1524 1522 1521 1519 1518 1517 1516 1515 1514 1513 1513 1513 1513 1513 1513 1514 1514 1515 1516 1517 1517 1518 1519
1539 1540 1541 1541 1542 1542 1541 1541 1541 1540 1539 1538 1537 1535 1534 1532 1531 1529 1528 1526 1524 1523 1521 1519 1518 1517 1516 1515 1514 1513 1513 1512 1512 1513 1513 1513 1514 1515 1516 1516 1517 1518 1519
1539 1540 1541 1542 1542 1542 1542 1542 1541 1541 1540 1539 1538 1536 1534 1533 1531 1530 1528 1526 1525 1523 1521 1520 1518 1517 1516 1515 1514 1513 1512 1512 1512 1513 1513 1513 1514 1515 1516 1516 1517 1518 1519
1539 1540 1541 1542 1542 1542 1542 1542 1542 1541 1540 1540 1538 1537 1535 1533 1532 1530 1528 1527 1525 1524 1522 1520 1519 1517 1516 1515 1514 1513 1513 1513 1513 1513 1513 1514 1514 1515 1515 1516 1517 1518 1519
1539 1541 1541 1542 1543 1543 1543 1542 1542 1542 1541 1540 1539 1538 1536 1534 1532 1531 1529 1527 1526 1524 1523 1521 1520 1518 1517 1515 1514 1514 1514 1513 1513 1513 1513 1514 1514 1515 1516 1516 1517 1518 1519
1539 1540 1541 1542 1543 1543 1543 1543 1542 1542 1541 1541 1540 1538 1537 1535 1533 1532 1530 1528 1527 1525 1524 1522 1520 1519 1517 1516 1515 1515 1515 1514 1514 1514 1514 1514 1514 1515 1516 1516 1517 1518 1519
1539 1540 1541 1542 1543 1543 1543 1543 1543 1542 1542 1541 1540 1539 1538 1536 1535 1533 1531 1529 1528 1526 1525 1523 1522 1520 1519 1517 1517 1516 1515 1516 1515 1515 1515 1515 1515 1515 1516 1516 1517 1518 1519
1538 1540 1541 1542 1543 1543 1543 1543 1543 1543 1542 1542 1541 1540 1539 1537 1536 1534 1532 1531 1529 1527 1526 1524 1523 1521 1520 1519 1518 1518 1517 1517 1516 1516 1515 1515 1515 1515 1516 1516 1517 1517 1518
1539 1540 1541 1542 1543 1544 1544 1544 1543 1543 1542 1542 1541 1540 1539 1538 1537 1535 1534 1532 1530 1529 1527 1526 1524 1523 1522 1521 1520 1519 1519 1518 1518 1517 1517 1516 1515 1515 1515 1516 1516 1517 1518
1539 1540 1541 1543 1543 1544 1544 1544 1544 1543 1542 1542 1541 1540 1539 1538 1537 1536 1534 1533 1531 1530 1528 1527 1526 1524 1523 1522 1521 1520 1520 1519 1519 1518 1517 1516 1516 1516 1515 1516 1516 1516 1517
1539 1540 1541 1542 1543 1544 1544 1544 1543 1543 1542 1541 1541 1540 1539 1538 1537 1536 1535 1534 1532 1531 1529 1528 1527 1525 1524 1523 1522 1521 1520 1520 1519 1519 1518 1516 1516 1515 1515 1515 1515 1516 1516